Skip Page Navigation
NASA JPL Caltech
NASA Logo - Jet Propulsion Laboratory + View the NASA Portal
+ Near-Earth Object (NEO) Program
Search JPL
JPL Home Earth Solar System Stars & Galaxies Technology
JPL Solar System Dynamics
BODIES ORBITS EPHEMERIDES TOOLS PHYSICAL DATA DISCOVERY FAQ SITE MAP
JPL Small-Body Database Browser
Search: [ help ]  
29636 (1998 VH6)
Classification: Main-belt Asteroid          SPK-ID: 2029636
Ephemeris | Orbit Diagram | Orbital Elements | Physical Parameters | Discovery Circumstances ]

[ show orbit diagram ]
Orbital Elements at Epoch 2456800.5 (2014-May-23.0) TDB
Reference: JPL 5 (heliocentric ecliptic J2000)
 Element Value Uncertainty (1-sigma)   Units 
e .0998140489098657 6.8992e-08  
a 2.301242050857786 1.701e-08 AU
q 2.071545764240027 1.6012e-07 AU
i 9.4286663334909 9.7956e-06 deg
node 24.57989038356966 3.9039e-05 deg
peri 68.58196060911941 7.2922e-05 deg
M 123.4322337856155 5.4838e-05 deg
tp 2456363.312267921146
(2013-Mar-11.81226792)
0.00019441 JED
period 1275.093050829395
3.49
1.4138e-05
3.871e-08
d
yr
n .2823323362681923 3.1304e-09 deg/d
Q 2.530938337475545 1.8708e-08 AU
  Orbit Determination Parameters
   # obs. used (total)      583  
   data-arc span      8095 days (22.16 yr)  
   first obs. used      1991-11-28  
   last obs. used      2014-01-26  
   planetary ephem.      DE431  
   SB-pert. ephem.      SB431-BIG16  
   condition code      0  
   fit RMS      .58618  
   data source      ORB  
   producer      Otto Matic  
   solution date      2014-Feb-19 18:46:02  

Additional Information
 Earth MOID = 1.1079 AU 
 T_jup = 3.567 
[ show covariance matrix ]

Ephemeris | Orbit Diagram | Orbital Elements | Physical Parameters | Discovery Circumstances ]

Physical Parameter Table
Parameter Symbol Value Units Sigma Reference Notes
absolute magnitude H 14.9 mag n/a MPO259543  

29636 (1998 VH6)          Discovered 1998-Nov-11 by Shimizu, Y., Urata, T. at Nachi-Katsuura (905)
Reference: 20011002/Numbers.arcLast Updated: 2004-04-19

Alternate Designations
 1998 VH6 = 2000 GJ70 
Ephemeris | Orbit Diagram | Orbital Elements | Physical Parameters | Discovery Circumstances ]
ABOUT SSD CREDITS/AWARDS PRIVACY/COPYRIGHT GLOSSARY LINKS
FirstGov 2014-Apr-16 16:03 UT
(server date/time)  
NASA Home Page
Site Manager:   Donald K. Yeomans
Webmaster  Alan B. Chamberlin